Weather History for Barksdale AFB, LA

Change the Weather History Date:

Wednesday, November 21, 2012

  Actual Average Record
Temperature  
Mean Temperature 59 °F -  
Max Temperature 74 °F 62 °F 81 °F (2011)
Min Temperature 44 °F 43 °F 26 °F (2000)
Degree Days  
Heating Degree Days 6    
Growing Degree Days 9 (Base 50)    
Moisture  
Dew Point 45 °F    
Average Humidity 71    
Maximum Humidity 100    
Minimum Humidity 29    
Precipitation  
Precipitation 0.00 in - - ()
Sea Level Pressure  
Sea Level Pressure 30.22 in    
Wind  
Wind Speed 1 mph (North)    
Max Wind Speed 5 mph    
Max Gust Speed -    
Visibility 8 miles    
Events Rain    
Averages and records for this station are not official NWS values.
T = Trace of Precipitation, MM = Missing Value Source: NWS Daily Summary

Daily Weather History Graph

Daily Weather History Graph

Search for Another Location

Airport:

Trip Planner

Search our weather history database for the weather conditions in past years. The results will help you decide how hot, cold, wet, or windy it might be!

Date:

Astronomy

Nov. 21, 2012 Rise Set
Actual Time 6:50 AM CST 5:10 PM CST
Civil Twilight 6:23 AM CST 5:37 PM CST
Nautical Twilight 5:53 AM CST 6:07 PM CST
Astronomical Twilight 5:24 AM CST 6:36 PM CST
Moon 1:09 PM CST (11/21) 12:30 AM CST (11/21)
Length of Visible Light 11h 13m
Length of Day
10h 20m
First Quarter, 62% of the Moon is Illuminated
Nov 21
First Quarter
Nov 28
Full
Dec 6
Last Quarter
Dec 13
New
Dec 19
First Quarter

Hourly Weather History & Observations

Time (CST) Temp. Dew Point Humidity Pressure Visibility Wind Dir Wind Speed Gust Speed Precip Events Conditions
12:55 AM 50.2 °F 49.8 °F 99% 30.19 in 5.0 mi Calm Calm - N/A   Clear
1:55 AM 49.1 °F 48.7 °F 99% 30.19 in 10.0 mi Calm Calm - N/A   Clear
2:55 AM 50.4 °F 49.6 °F 97% 30.19 in 10.0 mi Calm Calm - N/A   Clear
3:13 AM 50.0 °F 50.0 °F 100% 30.19 in 5.0 mi Calm Calm - N/A   Clear
3:55 AM 47.8 °F 47.7 °F 99% 30.21 in 5.0 mi NNW 2.3 mph - N/A   Clear
4:25 AM 48.2 °F 46.4 °F 93% 30.20 in 3.0 mi Calm Calm - N/A   Clear
4:55 AM 47.5 °F 47.3 °F 99% 30.22 in 3.0 mi North 3.5 mph - N/A   Clear
5:11 AM 48.2 °F 48.2 °F 100% 30.22 in 3.0 mi North 3.5 mph - N/A   Partly Cloudy
5:33 AM 48.2 °F 48.2 °F 100% 30.22 in 1.0 mi North 3.5 mph - N/A   Scattered Clouds
5:55 AM 46.8 °F 46.8 °F 100% 30.23 in 5.0 mi Calm Calm - N/A   Clear
6:55 AM 44.6 °F 44.6 °F 100% 30.26 in 5.0 mi NW 2.3 mph - N/A   Clear
7:32 AM 46.4 °F 46.4 °F 100% 30.27 in 1.5 mi Calm Calm - N/A   Clear
7:33 AM 46.4 °F 46.4 °F 100% 30.27 in 3.0 mi Calm Calm - N/A   Clear
7:55 AM 49.3 °F 49.3 °F 100% 30.28 in 10.0 mi Calm Calm - N/A   Clear
8:55 AM 56.3 °F 50.0 °F 79% 30.29 in 10.0 mi NE 3.5 mph - N/A   Clear
9:55 AM 61.9 °F 48.9 °F 62% 30.30 in 10.0 mi Variable 3.5 mph - N/A   Clear
10:55 AM 65.3 °F 49.3 °F 56% 30.28 in 10.0 mi Calm Calm - N/A   Clear
11:55 AM 68.2 °F 47.5 °F 47% 30.27 in 10.0 mi Calm Calm - N/A   Clear
12:55 PM 73.0 °F 44.4 °F 36% 30.24 in 10.0 mi Variable 4.6 mph - N/A   Clear
1:55 PM 73.9 °F 41.7 °F 31% 30.21 in 10.0 mi Calm Calm - N/A   Clear
2:55 PM 74.1 °F 41.4 °F 31% 30.19 in 10.0 mi Calm Calm - N/A   Clear
3:55 PM 74.5 °F 39.7 °F 29% 30.19 in 10.0 mi Calm Calm - N/A   Clear
4:14 PM 73.4 °F 42.8 °F 33% 30.19 in 10.0 mi Calm Calm - N/A Rain Light Rain
4:26 PM 71.6 °F 41.0 °F 33% 30.19 in 10.0 mi Calm Calm - N/A   Clear
4:33 PM 71.6 °F 41.0 °F 33% 30.19 in 10.0 mi Calm Calm - N/A Rain Light Rain
4:41 PM 69.8 °F 41.0 °F 35% 30.19 in 10.0 mi Calm Calm - N/A   Clear
4:45 PM 69.8 °F 41.0 °F 35% 30.18 in 10.0 mi Calm Calm - N/A Rain Light Rain
4:54 PM 68.0 °F 42.8 °F 40% 30.19 in 10.0 mi Calm Calm - N/A   Clear
4:55 PM 68.7 °F 43.2 °F 40% 30.18 in 10.0 mi Calm Calm - 0.00 in   Clear
5:55 PM 58.8 °F 44.1 °F 58% 30.19 in 10.0 mi Calm Calm - N/A   Clear
6:55 PM 54.3 °F 44.8 °F 70% 30.20 in 9.0 mi Calm Calm - N/A   Clear
7:55 PM 51.3 °F 44.6 °F 78% 30.21 in 10.0 mi Calm Calm - N/A   Clear
8:55 PM 50.0 °F 43.9 °F 79% 30.21 in 10.0 mi Calm Calm - N/A   Clear
9:55 PM 48.4 °F 43.5 °F 83% 30.21 in 10.0 mi Calm Calm - N/A   Clear
10:55 PM 46.0 °F 43.5 °F 91% 30.21 in 10.0 mi Calm Calm - N/A   Clear
11:55 PM 44.6 °F 42.6 °F 93% 30.20 in 10.0 mi Calm Calm - N/A   Clear